Location: Newark
(43.0000°N, 1.6781°W)
Time: 11:25:04
(UTC+00:00)

Vanguard 1 Rocket - Pass Details

Date: 10 October 2022
Orbit: 650 x 4225 km, 34.3° (Epoch: 04 December)

Event Time Altitude Azimuth Distance (km) Brightness Sun altitude
Rises 22:25:15 0° 277° (W) 7,697 12.5 -49.0°
Reaches altitude 10° 22:31:29 10° 272° (W) 6,169 11.8 -49.6°
Enters shadow 22:41:41 33° 250° (WSW) 3,595 10.3 -50.6°
